Simultaneous Nadir Overpasses (SNOs) Predictions

Prediction of SNOs between FY3D and AQUA Satellite Orbit:

Table of predicted SNOs for the next 14.0 days since TLE Epoch: 11/18/2023
Index Date (FY3D) Time (FY3D) Lat,Lon (FY3D) SZA (FY3D ) Date (AQUA) Time (AQUA) Lat,Lon (AQUA) SZA (AQUA ) Distance(km) Time Diff (sec)
1 11/20/2023 04:06:29 79.06, 98.84 99.02 11/20/2023 04:06:46 79.06, 98.89 99.01 0.99 17
2 11/20/2023 04:57:03 -78.68, -91.19 81.47 11/20/2023 04:56:00 -78.69, -91.25 81.46 1.54 63
3 11/22/2023 17:01:14 79.15, -95.44 99.70 11/22/2023 17:01:51 79.15, -95.36 99.68 1.60 37
4 11/22/2023 17:51:49 -78.81, 74.33 80.75 11/22/2023 17:51:06 -78.81, 74.32 80.74 0.51 43
5 11/25/2023 05:55:56 79.14, 71.02 100.21 11/25/2023 05:56:53 79.14, 70.93 100.21 1.92 57
6 11/25/2023 06:46:35 -78.94,-120.20 80.06 11/25/2023 06:46:11 -78.92,-120.08 80.07 2.85 24
7 11/27/2023 18:51:58 81.01,-148.24 104.37 11/27/2023 18:53:11 81.39,-147.46 104.56 44.14 73
8 11/27/2023 19:41:19 -79.00, 45.73 79.49 11/27/2023 19:41:14 -78.99, 45.81 79.50 1.95 5
9 11/30/2023 08:35:59 -78.96,-147.63 79.09 11/30/2023 08:36:13 -78.97,-147.77 79.08 3.17 14



Historial Predications of SNOs between FY3D and AQUA
